Find Starlink 38397

NORAD ID: 100514 Int'l Des: 2026-197 Owner: SPXS Country: US Constellation: starlink operational

Aktuelle Ansicht

3D-Globus wird geladen...

About Starlink 38397

Starlink 38397 (NORAD 100514) is a starlink constellation satellite launched Aug 25, 2026 by SPXS of US. with a mass of 575.00 kg.

Nächste Überflüge

Passes for default location (London). Set your location on the main map for personalized predictions.

Höhenverlauf

Loading altitude history...

Zweizeiliger Elementsatz

1 A0514U 26197N 26263.61100969 .00144282 00000-0 85058-3 0 9996
2 A0514 69.9991 121.4686 0004350 257.9849 102.0863 15.77596809 4000
Epoch: 20. Sept. 2026 • Age: 6 hours

Aktueller Status

Höhe 342.5 km
Apogäum / Perigäum N/A
Geschwindigkeit 7.71 km/s
Subsatellitenpunkt 30.71°N, 179.95°W
Startdatum 25. Aug. 2026
Alter 26 days
Typ internet

Technische Details

Klassifizierung Payload
Masse 575.00 kg
Trockenmasse 530.00 kg
Länge 0.30 m
Spannweite 29.00 m
Form ? Box + pan
Hersteller SPXS
Bus-Typ Starlink V2MO
Phasenstatus In Orbit
Besitzer/Staat SPXS/US

Most Searched